Find Starlink 30753

NORAD ID: 58175 Int'l Des: 2023-167 Owner: SPXS Country: US Constellation: starlink operational
LEOCIRCULAR

Current View

Loading 3D Globe...

About Starlink 30753

Starlink 30753 (NORAD 58175) is a starlink constellation satellite (v2 mini) launched Oct 30, 2023 by SPXS of US. It operates in LEO, CIRCULAR orbit with a mass of 730.00 kg.

About Starlink 30753

Description loading...

Upcoming Passes

Passes for default location (London). Set your location on the main map for personalized predictions.

Altitude History

Loading altitude history...

Two-Line Element Set

1 58175U 23167A 26169.64455171 -.00000271 00000-0 -34607-6 0 9990
2 58175 43.0008 293.3727 0001054 275.3221 84.7511 15.27572263146421
Epoch: Jun 18, 2026 • Age: 15 hours

Current Status

Altitude 486.1 km
Velocity 7.62 km/s
Sub-Earth Point -16.12°S, 123.08°E
Launch Date Oct 30, 2023
Age 2.6 years
Type internet

Technical Details

Classification Payload
Mass 730.00 kg
Dry Mass 700.00 kg
Total Mass 730.00 kg
Length 0.30 m
Diameter 4.10 m
Span 29.00 m
Shape Box + pan
Manufacturer SPXS
Bus Type Starlink V2M
Phase Status In Orbit
Owner/State SPXS/US

Most Searched